Date,TemperatureHighF,TemperatureAvgF,TemperatureLowF,DewpointHighF,DewpointAvgF,DewpointLowF,HumidityHigh,HumidityAvg,HumidityLow,PressureMaxIn,PressureMinIn,WindSpeedMaxMPH,WindSpeedAvgMPH,GustSpeedMaxMPH,PrecipitationSumIn
2013-3-1,-200.0,0.0,200.0,-99.9,-99.9,-99.9,0,0,100,29.89,29.76,0,-999,0,0.00
2013-3-2,26.5,12.5,23.1,18.0,-42.2,-99.9,72,34,64,29.93,29.87,9,-498,0,0.00
2013-3-3,-200.0,0.0,200.0,-99.9,-99.9,-99.9,0,0,100,29.88,29.85,0,-999,0,0.00
2013-3-4,31.3,14.4,22.9,23.0,-38.6,-99.9,74,37,68,30.04,29.85,18,-486,0,0.01
2013-3-5,33.5,5.1,28.3,25.0,-80.1,-99.9,73,12,70,30.10,29.98,10,-837,0,0.00
2013-3-6,42.1,15.4,36.8,33.0,-49.6,-99.9,72,27,64,30.13,29.96,11,-612,0,0.00
2013-3-7,40.5,17.5,33.5,32.0,-39.7,-99.9,73,33,63,30.27,30.11,6,-532,0,0.00
2013-3-8,44.2,18.6,33.5,28.0,-41.9,-99.9,70,27,51,30.39,30.25,10,-540,0,0.00
2013-3-9,50.3,17.4,35.9,35.0,-49.0,-99.9,71,23,52,30.41,30.22,8,-613,0,0.00
2013-3-10,65.9,29.1,52.2,35.0,-35.5,-99.9,42,17,31,30.22,29.96,10,-509,0,0.00
2013-3-11,56.2,12.3,55.0,39.0,-69.5,-99.9,52,11,47,29.98,29.67,21,-775,0,0.00
2013-3-12,46.0,20.0,37.9,36.0,-35.7,-99.9,71,34,63,29.91,29.66,13,-510,0,0.00
2013-3-13,41.4,20.0,29.9,29.0,-31.5,-99.9,71,35,57,29.93,29.82,15,-452,0,0.00
2013-3-14,34.4,14.7,23.4,19.0,-46.4,-99.9,73,23,38,30.05,29.93,21,-524,0,0.00
2013-3-15,39.1,6.9,36.0,30.0,-76.1,-99.9,72,13,69,30.04,29.72,13,-813,0,0.00
2013-3-16,32.0,12.9,23.0,22.0,-45.1,-99.9,74,32,57,29.98,29.84,4,-541,0,0.00
2013-3-17,31.7,13.5,24.4,24.0,-44.4,-99.9,73,31,57,30.34,29.97,5,-530,0,0.05
2013-3-18,-200.0,0.0,200.0,-99.9,-99.9,-99.9,0,0,100,30.35,29.72,0,-999,0,0.00
2013-3-19,38.7,15.5,28.3,27.0,-43.3,-99.9,74,30,46,29.82,29.65,20,-538,0,0.16
2013-3-20,37.1,15.9,28.1,24.0,-40.4,-99.9,73,32,49,29.83,29.79,18,-507,0,0.01
2013-3-21,32.1,12.8,26.5,23.0,-48.1,-99.9,73,28,52,29.82,29.71,12,-560,0,0.00
2013-3-22,-200.0,0.0,200.0,-99.9,-99.9,-99.9,0,0,100,29.89,29.73,0,-999,0,0.00
2013-3-23,39.9,21.5,30.5,28.0,-26.3,-99.9,73,38,59,29.99,29.86,16,-411,0,0.03
2013-3-24,42.8,18.3,33.1,29.0,-39.1,-99.9,72,30,54,29.99,29.74,7,-515,0,0.00
2013-3-25,44.7,16.3,35.9,32.0,-47.8,-99.9,72,26,58,29.72,29.59,6,-596,0,0.00
2013-3-26,50.1,21.7,37.9,35.0,-37.0,-99.9,71,28,52,29.92,29.71,9,-519,0,0.00
2013-3-27,48.0,19.7,36.4,35.0,-38.4,-99.9,71,30,53,30.05,29.90,16,-523,0,0.05
2013-3-28,45.1,15.0,40.2,35.0,-53.5,-99.9,71,24,63,30.19,30.03,8,-651,0,0.00
2013-3-29,52.8,24.4,38.6,37.0,-31.2,-99.9,71,30,45,30.19,30.10,10,-482,0,0.00
2013-3-30,55.1,28.3,28.4,34.0,-24.3,-99.9,71,28,34,30.19,30.04,10,-409,0,0.00
2013-3-31,-200.0,0.0,200.0,-99.9,-99.9,-99.9,0,0,100,30.04,29.59,0,-999,0,0.00